Terminal Aerodrome Forecast
Issued by NWS

Home | Current Version | Previous Version | Text Only | Print | Product List | Glossary On
Versions: 1 2 3 4 5 6 7 8 9 10 11 12 13 14 15 16 17 18 19 20
000
FTUS44 KTSA 180500
TAFRVS
TAF
KRVS 180537Z 1806/1906 11005KT 6SM -DZ BR OVC008
     FM180800 13002KT 2SM -DZ BR OVC004
     FM181600 12003KT 4SM BR OVC007
     FM182100 03004KT 5SM BR OVC012
     FM190100 02003KT 4SM BR OVC007=

USA.gov is the U.S. government's official web portal to all federal, state and local government web resources and services.